Tracking 30106 objects as of 24-Jan-2025
HD Live streaming from Space Station
objects crossing your sky now

YAOGAN 30 DEB

Track YAOGAN 30 DEB now!
10-day predictions


NORAD ID: 42677
Int'l Code: 2016-029C
Perigee: 632.3 km
Apogee: 974.1 km
Inclination: 97.9 °
Period: 100.8 minutes
Semi major axis: 7174 km
RCS: Unknown
Launch date: May 15, 2016
Source: People's Republic of China (PRC)
Launch site: Jiuquan Satellite Launch Center, China (JSC)

Note: This is SATELLITE DEBRIS
Your satellite tracking list
Your tracking list is empty




NASA's NSSDC Master Catalog

Two Line Element Set (TLE):
1 42677U 16029C   25022.36755774  .00009003  00000-0  26468-2 0  9999
2 42677  97.9424 178.6028 0238176 146.4447 215.2084 14.28707906438845
Source of the keplerian elements: AFSPC